Time,TemperatureF,DewpointF,PressureIn,WindDirection,WindDirectionDegrees,WindSpeedMPH,WindSpeedGustMPH,Humidity,HourlyPrecipIn,Conditions,Clouds,dailyrainin,SoftwareType,DateUTC
2013-01-26 00:02:00,45.0,43.0,30.20,North,355,4.0,6.0,93,0.00,,,0.00,,2013-01-26 06:02:00,
2013-01-26 00:12:00,45.0,43.0,30.20,North,355,4.0,6.0,93,0.00,,,0.00,,2013-01-26 06:12:00,
2013-01-26 00:21:00,45.0,43.0,30.20,North,10,5.0,7.0,92,0.00,,,0.00,,2013-01-26 06:21:00,
2013-01-26 00:32:00,45.0,43.0,30.20,NNE,22,4.0,7.0,92,0.00,,,0.00,,2013-01-26 06:32:00,
2013-01-26 00:41:00,45.0,43.0,30.20,NNE,22,4.0,7.0,92,0.00,,,0.00,,2013-01-26 06:41:00,
2013-01-26 00:51:00,45.0,43.0,30.21,North,349,4.0,6.0,92,0.00,,,0.00,,2013-01-26 06:51:00,
2013-01-26 01:02:00,45.0,43.0,30.21,North,9,4.0,7.0,92,0.00,,,0.00,,2013-01-26 07:02:00,
2013-01-26 01:12:00,45.0,43.0,30.21,North,9,4.0,7.0,92,0.00,,,0.00,,2013-01-26 07:12:00,
2013-01-26 01:21:00,45.0,43.0,30.21,North,9,4.0,7.0,92,0.00,,,0.00,,2013-01-26 07:21:00,
2013-01-26 01:33:00,45.0,42.0,30.21,North,355,7.0,12.0,89,0.00,,,0.00,,2013-01-26 07:33:00,
2013-01-26 01:41:00,45.0,42.0,30.21,North,355,7.0,12.0,89,0.00,,,0.00,,2013-01-26 07:41:00,
2013-01-26 01:52:00,45.0,43.0,30.21,NNE,17,6.0,9.0,91,0.00,,,0.00,,2013-01-26 07:52:00,
2013-01-26 02:02:00,45.0,42.0,30.21,North,350,7.0,10.0,90,0.00,,,0.00,,2013-01-26 08:02:00,
2013-01-26 02:11:00,45.0,42.0,30.21,North,350,7.0,10.0,90,0.00,,,0.00,,2013-01-26 08:11:00,
2013-01-26 02:21:00,45.0,42.0,30.21,North,5,6.0,9.0,90,0.00,,,0.00,,2013-01-26 08:21:00,
2013-01-26 02:32:00,45.0,42.0,30.21,North,360,6.0,11.0,88,0.00,,,0.00,,2013-01-26 08:32:00,
2013-01-26 02:42:00,45.0,42.0,30.21,North,360,6.0,11.0,88,0.00,,,0.00,,2013-01-26 08:42:00,
2013-01-26 02:53:00,45.0,42.0,30.21,North,5,5.0,8.0,89,0.00,,,0.00,,2013-01-26 08:53:00,
2013-01-26 03:02:00,45.0,42.0,30.21,North,360,6.0,9.0,88,0.00,,,0.00,,2013-01-26 09:02:00,
2013-01-26 03:11:00,45.0,42.0,30.21,North,360,6.0,9.0,88,0.00,,,0.00,,2013-01-26 09:11:00,
2013-01-26 03:22:00,45.0,42.0,30.21,NNW,336,6.0,11.0,88,0.00,,,0.00,,2013-01-26 09:22:00,
2013-01-26 03:32:00,45.0,41.0,30.22,NW,323,8.0,13.0,87,0.00,,,0.00,,2013-01-26 09:32:00,
2013-01-26 03:42:00,45.0,41.0,30.22,NW,323,8.0,13.0,87,0.00,,,0.00,,2013-01-26 09:42:00,
2013-01-26 03:51:00,45.0,41.0,30.21,North,360,6.0,10.0,86,0.00,,,0.00,,2013-01-26 09:51:00,
2013-01-26 04:01:00,45.0,41.0,30.21,North,355,7.0,10.0,87,0.00,,,0.00,,2013-01-26 10:01:00,
2013-01-26 04:12:00,45.0,41.0,30.21,North,355,7.0,10.0,87,0.00,,,0.00,,2013-01-26 10:12:00,
2013-01-26 04:21:00,45.0,41.0,30.22,NNE,13,8.0,11.0,86,0.00,,,0.00,,2013-01-26 10:21:00,
2013-01-26 04:32:00,45.0,41.0,30.21,North,355,7.0,11.0,86,0.00,,,0.00,,2013-01-26 10:32:00,
2013-01-26 04:42:00,45.0,41.0,30.21,North,355,7.0,11.0,86,0.00,,,0.00,,2013-01-26 10:42:00,
2013-01-26 04:52:00,45.0,41.0,30.22,NNW,343,7.0,14.0,86,0.00,,,0.00,,2013-01-26 10:52:00,
2013-01-26 05:01:00,45.0,41.0,30.21,North,10,7.0,11.0,87,0.00,,,0.00,,2013-01-26 11:01:00,
2013-01-26 05:12:00,45.0,41.0,30.21,North,10,7.0,11.0,87,0.00,,,0.00,,2013-01-26 11:12:00,
2013-01-26 05:22:00,45.0,41.0,30.21,North,355,8.0,12.0,86,0.00,,,0.00,,2013-01-26 11:22:00,
2013-01-26 05:32:00,45.0,41.0,30.21,North,5,8.0,12.0,86,0.00,,,0.00,,2013-01-26 11:32:00,
2013-01-26 05:42:00,45.0,41.0,30.21,North,5,8.0,12.0,86,0.00,,,0.00,,2013-01-26 11:42:00,
2013-01-26 05:52:00,45.0,41.0,30.22,NNE,16,11.0,14.0,86,0.00,,,0.00,,2013-01-26 11:52:00,
2013-01-26 06:02:00,45.0,41.0,30.22,North,5,8.0,12.0,86,0.00,,,0.00,,2013-01-26 12:02:00,
2013-01-26 06:12:00,45.0,41.0,30.22,North,5,8.0,12.0,86,0.00,,,0.00,,2013-01-26 12:12:00,
2013-01-26 06:22:00,44.0,40.0,30.22,NE,42,7.0,12.0,87,0.00,,,0.00,,2013-01-26 12:22:00,
2013-01-26 06:33:00,44.0,41.0,30.22,NNE,31,9.0,14.0,88,0.00,,,0.00,,2013-01-26 12:33:00,
2013-01-26 06:42:00,44.0,41.0,30.22,NNE,31,9.0,14.0,88,0.00,,,0.00,,2013-01-26 12:42:00,
2013-01-26 06:52:00,44.0,41.0,30.22,NE,51,8.0,13.0,88,0.00,,,0.00,,2013-01-26 12:52:00,
2013-01-26 07:03:00,44.0,41.0,30.23,NNE,24,8.0,10.0,89,0.00,,,0.00,,2013-01-26 13:03:00,
2013-01-26 07:12:00,44.0,41.0,30.23,NNE,24,8.0,10.0,89,0.00,,,0.00,,2013-01-26 13:12:00,
2013-01-26 07:22:00,44.0,42.0,30.24,NNE,16,6.0,10.0,91,0.00,,,0.00,,2013-01-26 13:22:00,
2013-01-26 07:32:00,44.0,41.0,30.24,NNE,32,6.0,9.0,90,0.00,,,0.00,,2013-01-26 13:32:00,
2013-01-26 07:42:00,44.0,41.0,30.24,NNE,32,6.0,9.0,90,0.00,,,0.00,,2013-01-26 13:42:00,
2013-01-26 07:52:00,44.0,42.0,30.24,NE,48,5.0,8.0,91,0.00,,,0.00,,2013-01-26 13:52:00,
2013-01-26 08:03:00,44.0,42.0,30.24,NNE,31,6.0,8.0,92,0.00,,,0.00,,2013-01-26 14:03:00,
2013-01-26 08:12:00,44.0,42.0,30.24,NNE,31,6.0,8.0,92,0.00,,,0.00,,2013-01-26 14:12:00,
2013-01-26 08:22:00,45.0,43.0,30.24,NE,34,5.0,8.0,93,0.00,,,0.00,,2013-01-26 14:22:00,
2013-01-26 08:32:00,45.0,43.0,30.25,NNE,23,7.0,9.0,92,0.00,,,0.00,,2013-01-26 14:32:00,
2013-01-26 08:43:00,45.0,43.0,30.25,NNE,23,7.0,9.0,92,0.00,,,0.00,,2013-01-26 14:43:00,
2013-01-26 08:52:00,45.0,43.0,30.24,NE,42,5.0,9.0,92,0.00,,,0.00,,2013-01-26 14:52:00,
2013-01-26 09:03:00,45.0,43.0,30.24,NE,42,5.0,9.0,92,0.00,,,0.00,,2013-01-26 15:03:00,
2013-01-26 09:12:00,45.0,43.0,30.24,NE,42,5.0,9.0,92,0.00,,,0.00,,2013-01-26 15:12:00,
2013-01-26 09:22:00,45.0,43.0,30.24,NE,42,5.0,9.0,92,0.00,,,0.00,,2013-01-26 15:22:00,
2013-01-26 09:33:00,45.0,43.0,30.26,NE,42,6.0,9.0,93,0.00,,,0.00,,2013-01-26 15:33:00,
2013-01-26 09:43:00,45.0,43.0,30.26,NE,42,6.0,9.0,93,0.00,,,0.00,,2013-01-26 15:43:00,
2013-01-26 09:53:00,45.0,43.0,30.26,NE,35,6.0,9.0,93,0.00,,,0.00,,2013-01-26 15:53:00,
2013-01-26 10:02:00,45.0,43.0,30.26,NE,46,7.0,10.0,92,0.00,,,0.00,,2013-01-26 16:02:00,
2013-01-26 10:12:00,45.0,43.0,30.26,NE,46,7.0,10.0,92,0.00,,,0.00,,2013-01-26 16:12:00,
2013-01-26 10:22:00,45.0,43.0,30.27,NE,34,4.0,9.0,92,0.00,,,0.00,,2013-01-26 16:22:00,
2013-01-26 10:33:00,45.0,43.0,30.28,NNE,19,6.0,9.0,92,0.00,,,0.00,,2013-01-26 16:33:00,
2013-01-26 10:42:00,45.0,43.0,30.28,NNE,19,6.0,9.0,92,0.00,,,0.00,,2013-01-26 16:42:00,
2013-01-26 10:53:00,45.0,43.0,30.28,NNE,19,7.0,9.0,92,0.00,,,0.00,,2013-01-26 16:53:00,
2013-01-26 11:03:00,45.0,43.0,30.27,North,5,6.0,11.0,93,0.00,,,0.00,,2013-01-26 17:03:00,
2013-01-26 11:12:00,45.0,43.0,30.27,North,5,6.0,11.0,93,0.00,,,0.00,,2013-01-26 17:12:00,
2013-01-26 11:22:00,44.0,42.0,30.27,NNE,22,9.0,13.0,94,0.00,,,0.00,,2013-01-26 17:22:00,
2013-01-26 11:33:00,44.0,42.0,30.27,NNE,13,8.0,12.0,94,0.00,,,0.00,,2013-01-26 17:33:00,
2013-01-26 11:42:00,44.0,42.0,30.27,NNE,13,8.0,12.0,94,0.00,,,0.00,,2013-01-26 17:42:00,
2013-01-26 11:52:00,44.0,42.0,30.27,NNE,30,9.0,14.0,94,0.00,,,0.00,,2013-01-26 17:52:00,
2013-01-26 12:02:00,44.0,42.0,30.26,NNE,28,9.0,12.0,94,0.00,,,0.00,,2013-01-26 18:02:00,
2013-01-26 12:12:00,44.0,42.0,30.26,NNE,28,9.0,12.0,94,0.00,,,0.00,,2013-01-26 18:12:00,
2013-01-26 12:22:00,44.0,42.0,30.26,NNE,28,9.0,12.0,94,0.00,,,0.00,,2013-01-26 18:22:00,
2013-01-26 12:33:00,44.0,42.0,30.26,NNE,32,5.0,11.0,94,0.00,,,0.00,,2013-01-26 18:33:00,
2013-01-26 12:42:00,44.0,42.0,30.26,NNE,32,5.0,11.0,94,0.00,,,0.00,,2013-01-26 18:42:00,
2013-01-26 12:53:00,44.0,42.0,30.24,NE,43,9.0,12.0,94,0.00,,,0.00,,2013-01-26 18:53:00,
2013-01-26 13:03:00,44.0,42.0,30.24,NNE,30,7.0,12.0,94,0.00,,,0.00,,2013-01-26 19:03:00,
2013-01-26 13:12:00,44.0,42.0,30.24,NNE,30,7.0,12.0,94,0.00,,,0.00,,2013-01-26 19:12:00,
2013-01-26 13:22:00,44.0,42.0,30.23,NNE,25,7.0,11.0,94,0.00,,,0.00,,2013-01-26 19:22:00,
2013-01-26 13:32:00,44.0,42.0,30.23,NNE,21,8.0,12.0,94,0.00,,,0.00,,2013-01-26 19:32:00,
2013-01-26 13:42:00,44.0,42.0,30.23,NNE,21,8.0,12.0,94,0.00,,,0.00,,2013-01-26 19:42:00,
2013-01-26 13:52:00,45.0,43.0,30.22,NE,36,7.0,11.0,94,0.00,,,0.00,,2013-01-26 19:52:00,
2013-01-26 14:02:00,45.0,43.0,30.22,North,5,6.0,11.0,93,0.00,,,0.00,,2013-01-26 20:02:00,
2013-01-26 14:11:00,45.0,43.0,30.22,North,5,6.0,11.0,93,0.00,,,0.00,,2013-01-26 20:11:00,
2013-01-26 14:22:00,45.0,43.0,30.22,NE,44,8.0,10.0,93,0.00,,,0.00,,2013-01-26 20:22:00,
2013-01-26 14:32:00,45.0,43.0,30.22,NNE,19,6.0,10.0,93,0.00,,,0.00,,2013-01-26 20:32:00,
2013-01-26 14:42:00,45.0,43.0,30.22,NNE,19,6.0,10.0,93,0.00,,,0.00,,2013-01-26 20:42:00,
2013-01-26 14:52:00,45.0,43.0,30.22,NNE,27,8.0,12.0,93,0.00,,,0.00,,2013-01-26 20:52:00,
2013-01-26 15:02:00,45.0,43.0,30.22,NE,44,8.0,12.0,93,0.00,,,0.00,,2013-01-26 21:02:00,
2013-01-26 15:12:00,45.0,43.0,30.22,NE,44,8.0,12.0,93,0.00,,,0.00,,2013-01-26 21:12:00,
2013-01-26 15:22:00,45.0,43.0,30.22,NE,44,8.0,13.0,94,0.00,,,0.00,,2013-01-26 21:22:00,
2013-01-26 15:32:00,45.0,43.0,30.22,NE,36,8.0,12.0,93,0.00,,,0.00,,2013-01-26 21:32:00,
2013-01-26 15:42:00,45.0,43.0,30.22,NE,36,8.0,12.0,93,0.00,,,0.00,,2013-01-26 21:42:00,
2013-01-26 15:51:00,45.0,43.0,30.22,NE,36,7.0,11.0,94,0.00,,,0.00,,2013-01-26 21:51:00,
2013-01-26 16:01:00,46.0,44.0,30.22,NNE,27,8.0,10.0,94,0.00,,,0.00,,2013-01-26 22:01:00,
2013-01-26 16:11:00,46.0,44.0,30.22,NNE,27,8.0,10.0,94,0.00,,,0.00,,2013-01-26 22:11:00,
2013-01-26 16:22:00,46.0,44.0,30.22,NE,47,8.0,11.0,93,0.00,,,0.00,,2013-01-26 22:22:00,
2013-01-26 16:32:00,46.0,44.0,30.21,NE,51,9.0,12.0,94,0.00,,,0.00,,2013-01-26 22:32:00,
2013-01-26 16:42:00,46.0,44.0,30.21,NE,51,9.0,12.0,94,0.00,,,0.00,,2013-01-26 22:42:00,
2013-01-26 16:52:00,46.0,44.0,30.21,NE,40,5.0,12.0,94,0.00,,,0.00,,2013-01-26 22:52:00,
2013-01-26 17:01:00,46.0,44.0,30.21,NE,42,7.0,9.0,93,0.00,,,0.00,,2013-01-26 23:01:00,
2013-01-26 17:12:00,46.0,44.0,30.21,NE,42,7.0,9.0,93,0.00,,,0.00,,2013-01-26 23:12:00,
2013-01-26 17:22:00,46.0,44.0,30.21,NE,37,9.0,11.0,93,0.00,,,0.00,,2013-01-26 23:22:00,
2013-01-26 17:32:00,46.0,44.0,30.20,ENE,63,8.0,13.0,94,0.00,,,0.00,,2013-01-26 23:32:00,
2013-01-26 17:42:00,46.0,44.0,30.20,ENE,63,8.0,13.0,94,0.00,,,0.00,,2013-01-26 23:42:00,
2013-01-26 17:52:00,46.0,44.0,30.20,NE,34,8.0,13.0,94,0.00,,,0.00,,2013-01-26 23:52:00,
2013-01-26 18:02:00,46.0,44.0,30.20,ENE,59,9.0,12.0,94,0.00,,,0.00,,2013-01-27 00:02:00,
2013-01-26 18:11:00,46.0,44.0,30.20,ENE,59,9.0,12.0,94,0.00,,,0.00,,2013-01-27 00:11:00,
2013-01-26 18:21:00,46.0,44.0,30.21,NNE,14,5.0,7.0,94,0.00,,,0.00,,2013-01-27 00:21:00,
2013-01-26 18:32:00,46.0,44.0,30.22,North,355,4.0,7.0,94,0.00,,,0.00,,2013-01-27 00:32:00,
2013-01-26 18:42:00,46.0,44.0,30.22,North,355,4.0,7.0,94,0.00,,,0.00,,2013-01-27 00:42:00,
2013-01-26 18:51:00,46.0,44.0,30.21,NNE,17,7.0,9.0,94,0.00,,,0.00,,2013-01-27 00:51:00,
2013-01-26 19:01:00,46.0,44.0,30.20,NE,38,5.0,9.0,94,0.00,,,0.00,,2013-01-27 01:01:00,
2013-01-26 19:11:00,46.0,44.0,30.20,NE,38,5.0,9.0,94,0.00,,,0.00,,2013-01-27 01:11:00,
2013-01-26 19:22:00,46.0,44.0,30.21,NNE,22,6.0,9.0,94,0.00,,,0.00,,2013-01-27 01:22:00,
2013-01-26 19:32:00,46.0,44.0,30.22,NE,40,5.0,8.0,94,0.00,,,0.00,,2013-01-27 01:32:00,
2013-01-26 19:41:00,46.0,44.0,30.22,NE,40,5.0,8.0,94,0.00,,,0.00,,2013-01-27 01:41:00,
2013-01-26 19:52:00,47.0,45.0,30.22,NE,36,6.0,8.0,94,0.00,,,0.00,,2013-01-27 01:52:00,
2013-01-26 20:01:00,47.0,45.0,30.21,ENE,66,5.0,7.0,94,0.00,,,0.00,,2013-01-27 02:01:00,
2013-01-26 20:11:00,47.0,45.0,30.21,ENE,66,5.0,7.0,94,0.00,,,0.00,,2013-01-27 02:11:00,
2013-01-26 20:22:00,47.0,45.0,30.21,ENE,65,7.0,9.0,94,0.00,,,0.00,,2013-01-27 02:22:00,
2013-01-26 20:32:00,47.0,45.0,30.21,ENE,59,6.0,9.0,93,0.00,,,0.00,,2013-01-27 02:32:00,
2013-01-26 20:42:00,47.0,45.0,30.21,ENE,59,6.0,9.0,93,0.00,,,0.00,,2013-01-27 02:42:00,
2013-01-26 20:52:00,47.0,45.0,30.21,NE,53,5.0,9.0,92,0.00,,,0.00,,2013-01-27 02:52:00,
2013-01-26 21:02:00,47.0,45.0,30.21,NE,42,3.0,6.0,93,0.00,,,0.00,,2013-01-27 03:02:00,
2013-01-26 21:11:00,47.0,45.0,30.21,NE,42,3.0,6.0,93,0.00,,,0.00,,2013-01-27 03:11:00,
2013-01-26 21:21:00,47.0,45.0,30.21,NE,42,3.0,6.0,93,0.00,,,0.00,,2013-01-27 03:21:00,
2013-01-26 21:32:00,47.0,45.0,30.20,ENE,58,4.0,7.0,92,0.00,,,0.00,,2013-01-27 03:32:00,
2013-01-26 21:42:00,47.0,45.0,30.20,ENE,58,4.0,7.0,92,0.00,,,0.00,,2013-01-27 03:42:00,
2013-01-26 21:52:00,47.0,45.0,30.21,NE,55,3.0,6.0,92,0.00,,,0.00,,2013-01-27 03:52:00,
2013-01-26 22:02:00,48.0,46.0,30.20,NE,51,2.0,6.0,92,0.00,,,0.00,,2013-01-27 04:02:00,
2013-01-26 22:11:00,48.0,46.0,30.20,NE,51,2.0,6.0,92,0.00,,,0.00,,2013-01-27 04:11:00,
2013-01-26 22:21:00,48.0,46.0,30.21,NE,52,0.0,3.0,92,0.00,,,0.00,,2013-01-27 04:21:00,
2013-01-26 22:32:00,48.0,46.0,30.21,NE,52,0.0,3.0,92,0.00,,,0.00,,2013-01-27 04:32:00,
2013-01-26 22:41:00,48.0,46.0,30.21,NE,52,0.0,3.0,92,0.00,,,0.00,,2013-01-27 04:41:00,
2013-01-26 22:51:00,48.0,45.0,30.21,NE,52,0.0,0.0,91,0.00,,,0.00,,2013-01-27 04:51:00,
2013-01-26 23:03:00,48.0,45.0,30.21,NE,52,0.0,1.0,91,0.00,,,0.00,,2013-01-27 05:03:00,
2013-01-26 23:12:00,48.0,45.0,30.21,NE,52,0.0,1.0,91,0.00,,,0.00,,2013-01-27 05:12:00,
2013-01-26 23:22:00,48.0,45.0,30.20,NE,52,0.0,2.0,91,0.00,,,0.00,,2013-01-27 05:22:00,
2013-01-26 23:32:00,47.0,45.0,30.21,NE,52,0.0,0.0,91,0.00,,,0.00,,2013-01-27 05:32:00,
2013-01-26 23:41:00,47.0,45.0,30.21,NE,52,0.0,0.0,91,0.00,,,0.00,,2013-01-27 05:41:00,
2013-01-26 23:52:00,47.0,45.0,30.21,NE,52,0.0,1.0,91,0.00,,,0.00,,2013-01-27 05:52:00,